Location: Ottawa
(45.4167°N, 75.7000°W)
Time: 23:49:56
(UTC-05:00)

N. Korean satellite - Pass Details

Date: 13 October 2017
Orbit: 461 x 513 km, 97.2° (Epoch: 11 December)

Event Time Altitude Azimuth Distance (km) Brightness Sun altitude
Rises 19:49:14 0° 197° (SSW) 2,549 10.4 -16.4°
Reaches altitude 10° 19:51:38 10° 213° (SSW) 1,663 9.6 -16.8°
Maximum altitude 19:54:28 22° 265° (W) 1,098 9.3 -17.3°
Drops below altitude 10° 19:57:18 10° 318° (NW) 1,652 9.9 -17.8°
Sets 19:59:41 0° 334° (NNW) 2,527 10.7 -18.2°
